Theta_e
337 338 338 338 336 336 336 336 336 336 335 335 335 335 334 335 341 345 348 345 336 334 335 333 333 333 332 333 333 332 331 330 328 329 329 330 330 330 331 330 331 331 331 331 331 331 331 331 331 332 332 332 332 332 332 331 330 329 327 325 323 321 319 317 316 315 315 315 316 316 316 316 316 316
338 338 338 338 337 335 335 335 336 336 336 336 335 335 334 333 336 338 343 345 337 334 335 334 334 335 334 334 333 331 332 331 330 331 331 331 331 331 331 331 331 331 332 332 332 332 331 331 332 332 332 333 333 333 333 332 331 329 328 325 322 320 319 317 316 316 316 316 316 316 316 316 317 317
338 338 339 339 338 336 334 334 336 336 336 336 335 335 334 334 335 334 337 341 338 334 335 335 335 336 336 335 335 334 333 333 333 333 332 332 332 332 332 332 332 332 332 332 332 332 331 331 332 332 333 333 333 333 333 333 332 331 329 328 326 324 321 319 317 316 316 316 316 316 316 316 316 316
337 338 339 339 338 337 336 336 337 337 337 337 336 336 336 335 337 336 336 338 338 336 336 337 336 337 337 336 335 334 333 332 333 334 334 333 333 333 333 332 332 332 332 332 332 332 332 331 332 332 332 333 333 333 332 332 331 331 330 330 329 328 326 324 321 319 318 317 316 316 316 316 316 316
338 338 339 339 338 338 337 337 337 337 337 337 337 337 337 336 337 337 337 337 336 337 337 337 337 336 336 335 334 334 334 333 333 334 334 333 333 333 333 333 333 333 332 333 332 332 332 331 331 331 331 331 332 332 331 331 330 330 329 329 328 328 327 326 325 324 322 321 319 318 317 316 316 316
338 338 338 338 338 338 338 338 338 337 337 337 337 336 336 336 336 337 337 337 337 337 337 337 336 335 335 335 335 335 335 335 334 334 334 333 333 332 332 332 333 332 332 332 332 332 332 331 331 331 330 330 330 330 330 329 329 328 328 328 328 328 327 326 326 326 325 324 323 321 319 318 318 317
339 338 338 338 338 338 337 337 337 337 337 337 337 336 336 337 337 337 337 338 338 338 338 337 336 335 335 336 336 336 336 336 336 336 335 335 333 331 331 332 332 331 330 330 330 332 332 331 331 331 331 330 330 330 329 329 329 328 328 328 328 328 328 327 327 326 326 326 325 324 323 323 322 321
339 338 338 338 337 337 337 337 337 337 337 337 337 336 337 338 337 337 337 337 338 338 338 337 336 336 336 337 337 336 337 337 336 336 336 334 332 330 332 332 331 329 328 329 330 331 331 331 331 331 331 330 330 329 329 329 329 329 328 328 328 328 328 328 327 327 327 327 327 326 326 326 325 325
340 339 338 337 336 336 337 338 337 338 337 337 336 337 337 338 337 337 337 337 337 337 338 337 336 336 337 336 336 335 335 334 334 334 333 332 331 331 331 331 329 328 328 329 329 330 331 331 331 330 329 328 328 328 327 327 327 328 328 328 328 328 328 328 328 327 327 327 327 327 327 327 327 326
339 338 338 338 336 337 338 338 338 338 337 337 337 337 337 337 337 337 337 337 336 336 336 336 337 337 337 335 334 333 333 333 333 332 332 332 332 332 332 330 328 328 328 329 329 330 330 330 330 329 327 327 326 326 326 326 327 328 328 328 328 328 327 327 327 328 328 328 328 328 327 327 327 327
339 339 339 339 337 338 339 338 338 338 337 337 337 338 337 337 337 337 337 337 337 336 336 337 337 336 335 335 334 333 334 333 333 333 333 333 332 332 331 330 329 329 329 329 329 329 329 328 327 326 325 325 324 324 324 325 327 328 328 328 327 325 324 324 325 326 327 326 327 327 327 326 326 326
339 339 339 339 338 338 338 338 338 337 337 337 338 338 337 337 337 337 337 337 336 336 337 337 337 336 335 335 334 334 334 334 333 332 332 332 331 331 331 330 330 330 329 329 328 327 327 326 325 324 322 321 320 321 322 324 325 325 325 324 323 321 321 321 322 323 323 324 324 325 325 325 325 325
340 339 339 339 338 338 338 338 338 337 337 338 338 337 337 337 337 337 337 337 337 337 337 337 336 335 334 334 333 333 333 333 332 331 331 331 331 330 330 330 329 329 329 328 328 326 325 326 325 323 321 319 319 319 320 321 321 321 321 321 320 320 320 321 322 322 323 323 323 324 324 324 324 324
340 340 340 339 339 338 338 338 338 338 338 338 338 337 337 337 337 337 336 337 337 337 337 336 335 334 333 333 333 333 333 332 331 331 331 330 330 330 330 329 327 327 328 328 327 326 324 325 324 322 320 319 319 320 320 320 320 320 320 320 319 319 319 320 322 323 323 323 323 323 323 322 321 321
340 340 340 341 341 340 338 338 338 338 338 338 337 337 337 337 337 337 337 337 337 337 336 335 334 333 333 333 334 333 333 332 331 330 330 330 330 330 329 328 327 326 326 327 327 325 323 322 322 320 319 320 320 320 321 320 321 321 321 321 321 320 320 322 323 323 323 322 321 320 319 318 318 317
339 339 340 341 341 340 338 338 338 338 338 337 337 338 337 337 337 337 336 337 337 337 335 334 334 334 334 334 335 334 332 331 330 330 330 330 330 329 329 328 327 325 325 326 325 323 320 320 321 321 320 321 321 321 321 322 322 322 322 322 322 322 322 322 322 321 320 318 317 317 317 316 316 314
339 339 339 340 340 340 339 338 338 338 338 337 337 338 338 338 338 338 337 336 335 334 334 335 335 335 335 335 334 333 331 330 330 330 330 330 329 329 328 327 326 324 323 324 323 322 321 320 321 321 322 322 321 321 320 319 318 318 318 319 318 318 318 318 318 318 317 316 315 315 314 313 312 311
339 339 338 338 339 339 339 339 339 337 336 336 337 337 337 338 338 337 336 335 334 335 335 335 334 334 334 333 332 331 331 330 330 330 330 329 328 327 325 325 323 322 321 322 323 323 322 321 322 323 322 321 320 317 315 314 313 313 312 312 312 312 312 312 312 312 312 312 312 311 311 312 312 313
339 339 339 339 339 339 339 339 338 335 334 337 338 337 336 336 336 336 335 335 335 335 335 334 334 333 332 331 330 330 331 331 331 330 328 326 325 324 323 323 322 322 321 322 322 322 322 322 323 322 320 318 316 315 313 312 310 309 308 309 310 311 312 312 313 314 314 315 315 315 316 316 317 318
339 339 339 339 339 339 339 339 336 331 332 336 338 337 337 336 336 336 336 337 336 335 334 333 333 332 330 329 330 330 330 330 328 326 324 323 323 323 323 322 322 322 322 322 322 322 322 322 320 317 315 314 313 312 310 309 308 309 311 313 314 315 316 317 317 318 318 319 319 319 318 318 318 318
340 340 339 339 340 339 339 339 334 327 330 337 339 338 338 338 337 338 338 338 336 334 334 334 332 331 329 328 328 327 327 326 325 324 323 323 323 322 321 321 322 322 322 322 322 320 320 319 316 313 312 311 310 310 309 308 310 313 315 315 316 316 317 318 318 319 319 319 319 318 318 318 318 318
339 340 339 339 339 339 339 337 329 324 329 337 339 339 339 339 338 339 339 338 336 335 334 332 331 329 328 327 327 326 326 325 324 324 324 323 323 323 322 321 321 322 321 322 321 318 316 316 313 312 312 310 310 310 310 311 313 315 315 315 316 316 317 318 318 318 318 318 318 318 318 318 318 318
339 339 340 340 338 339 339 333 325 325 332 338 339 339 339 339 339 339 339 337 336 334 332 330 329 328 328 327 326 325 324 323 323 323 322 321 322 323 322 321 322 322 322 320 317 316 314 313 312 312 312 312 311 311 311 312 313 314 315 315 316 316 317 318 318 318 317 318 318 318 318 318 318 319
338 339 339 339 339 339 337 329 325 329 335 339 340 339 339 339 339 339 338 336 335 333 332 330 329 328 326 325 323 323 322 322 322 321 320 319 319 319 319 318 319 320 319 316 313 313 312 312 312 312 312 312 313 311 311 311 312 313 314 315 315 316 317 318 318 318 318 318 318 318 318 318 318 319
338 338 339 339 339 338 333 327 326 329 335 339 340 339 340 340 340 339 337 335 334 332 330 329 326 324 323 322 321 322 322 322 321 320 318 317 316 315 315 314 315 316 315 311 310 311 312 312 312 312 312 312 312 311 311 311 311 312 313 314 315 316 317 318 319 318 318 318 318 318 318 318 318 319
337 338 338 339 339 337 332 327 327 331 337 340 340 340 340 340 338 336 335 333 332 330 328 325 323 322 321 320 320 321 322 321 320 319 318 316 315 314 313 313 313 314 312 310 309 310 312 312 311 311 312 311 311 310 311 311 311 311 313 314 315 316 317 318 319 318 318 318 318 318 318 318 319 319
336 336 337 337 337 336 332 327 327 333 338 339 338 338 338 337 335 333 332 330 328 327 325 323 321 321 320 319 319 320 321 321 320 319 317 316 314 313 312 310 310 310 309 308 308 308 310 311 310 310 311 310 310 310 310 311 311 311 312 314 315 316 318 318 318 318 318 318 318 318 319 319 319 319
335 335 335 335 334 333 330 327 329 336 340 339 338 336 335 334 333 331 328 327 327 325 323 322 320 320 319 319 319 321 322 321 319 318 317 315 313 311 310 309 308 307 307 308 308 307 308 309 309 309 310 310 309 310 310 311 311 312 313 314 316 316 317 318 318 318 318 318 318 319 319 319 319 319
334 334 334 333 332 330 328 331 335 339 340 338 337 336 334 332 330 328 325 325 325 324 322 320 320 319 318 319 320 322 322 320 318 316 315 313 311 310 308 307 307 307 307 307 308 308 308 309 309 309 310 310 310 310 311 311 312 312 314 315 317 317 317 317 317 317 318 318 318 318 319 319 318 318
334 334 333 332 331 331 333 336 338 338 337 336 335 333 331 329 327 324 322 321 322 321 320 319 318 318 318 320 321 321 320 318 316 314 312 311 310 308 307 307 307 307 307 307 308 308 308 308 308 308 308 309 309 310 310 311 313 313 314 315 316 317 317 317 317 317 318 318 318 318 318 318 318 317
334 334 335 335 335 335 336 336 335 334 333 333 331 329 328 326 323 321 320 320 321 320 318 318 318 318 319 321 321 320 317 315 314 312 311 309 308 307 307 307 307 307 307 307 307 308 308 307 307 307 308 308 308 309 309 311 312 313 314 315 316 317 317 317 317 317 318 318 318 318 318 317 316 316
335 335 336 336 337 337 336 333 331 331 330 329 328 326 325 323 322 321 320 321 321 319 318 319 319 319 320 321 320 317 315 314 312 311 309 308 307 307 307 307 307 307 307 307 307 307 307 307 307 307 308 308 308 308 309 311 313 314 315 315 316 316 317 317 317 317 318 318 318 317 317 316 315 314
335 334 334 335 335 335 333 330 329 328 327 326 325 323 322 322 321 321 321 321 320 319 319 319 319 319 320 320 318 315 314 312 310 309 308 307 306 306 307 307 307 307 307 307 307 306 307 307 307 307 307 307 308 309 310 312 314 315 315 315 316 316 316 317 317 318 317 317 317 316 315 314 313 312
334 332 332 333 332 331 329 328 327 326 325 324 322 322 322 322 322 321 321 320 319 319 319 319 319 320 321 320 317 314 312 311 309 307 307 306 306 307 307 307 307 307 307 307 306 306 307 307 307 307 307 307 308 308 310 313 314 314 314 315 315 316 316 317 317 317 317 316 315 314 313 312 311 311
333 331 330 330 329 328 326 326 326 325 323 323 323 324 324 323 323 322 321 320 320 320 320 321 321 321 320 317 314 312 310 308 307 306 306 306 307 307 307 307 306 306 306 306 306 307 307 307 307 307 307 307 308 309 310 312 313 313 314 314 315 316 317 317 317 316 315 314 312 311 311 310 310 310
331 330 329 328 327 327 326 326 326 325 324 325 326 325 325 324 324 323 322 322 322 321 319 319 319 318 316 314 312 310 308 306 305 306 306 306 306 306 306 306 306 305 305 306 306 307 307 307 307 307 307 307 309 311 311 312 312 313 313 314 315 316 317 317 316 314 312 311 309 309 309 309 309 309
329 329 328 327 327 327 327 327 327 327 327 326 325 325 325 324 324 324 324 323 320 317 316 315 314 313 312 310 309 308 307 306 306 306 306 306 305 305 305 305 305 305 305 306 306 307 307 307 306 306 306 308 310 311 310 310 312 314 314 315 316 317 317 316 315 312 310 309 308 308 308 308 308 308
329 328 328 327 328 327 327 327 325 324 323 322 322 322 322 321 322 323 322 319 315 314 314 312 312 311 310 309 309 308 307 307 306 306 305 305 304 304 304 304 305 305 305 306 307 307 306 306 306 306 306 308 310 310 309 309 311 314 315 315 316 316 316 315 312 310 308 308 307 307 307 307 307 307
330 329 328 328 327 325 323 322 320 319 319 319 318 318 318 317 319 320 319 315 313 313 313 311 311 310 308 308 307 307 306 306 305 305 304 304 304 304 304 304 305 305 305 306 306 306 306 306 306 306 306 307 307 308 308 309 311 314 315 315 315 315 315 313 310 308 308 307 307 307 306 306 306 306
329 329 329 327 325 322 320 319 319 319 318 318 317 316 316 316 316 316 315 313 311 311 311 309 308 307 307 307 306 306 306 305 305 304 304 304 304 304 304 305 305 305 305 306 306 306 305 305 306 306 305 306 307 308 310 312 313 315 315 314 313 314 313 311 309 307 307 307 306 306 306 305 305 305
329 328 327 325 322 319 319 319 319 318 318 317 316 315 315 314 314 313 312 311 310 310 310 309 308 307 308 307 306 305 305 305 304 304 304 303 304 304 305 305 305 305 305 306 306 306 305 305 305 305 305 307 309 312 313 314 314 314 314 313 312 312 311 310 308 307 306 306 306 305 305 304 304 305
328 327 325 323 320 319 318 318 318 317 316 316 315 315 314 313 312 311 310 310 309 310 310 309 309 309 308 306 305 305 305 304 304 304 303 304 304 305 305 305 305 305 306 306 305 305 305 305 305 305 305 308 312 313 313 313 313 313 313 312 311 310 309 308 306 306 306 305 304 304 304 304 304 304
327 324 322 321 319 318 318 317 316 316 315 314 313 313 312 311 310 310 309 309 309 309 309 309 309 308 307 305 305 305 305 304 304 303 303 304 305 304 305 305 305 306 306 306 305 305 305 305 305 305 305 309 312 313 312 312 312 312 312 312 311 309 308 306 306 305 305 304 303 303 302 302 303 304
323 321 320 319 318 317 316 316 315 314 313 313 312 311 311 310 310 309 309 309 308 308 308 308 307 307 306 305 304 304 304 304 304 303 304 304 304 304 305 305 305 306 306 305 304 305 305 305 305 304 305 308 312 312 311 311 311 311 311 311 310 308 307 306 305 305 304 303 303 301 301 300 301 302
321 320 319 318 317 316 315 315 314 313 312 312 311 310 310 309 309 308 308 308 307 307 307 307 306 305 304 304 304 304 304 304 304 304 304 304 304 305 305 305 305 306 305 304 304 304 304 305 305 304 305 309 312 311 310 310 311 310 310 310 309 307 306 305 305 305 304 303 302 301 300 299 300 301
Wind_Speed
19 17 14 13 13 11 10 9 8 8 8 9 9 9 8 7 5 1 1 3 3 5 5 4 4 4 5 4 6 10 13 14 14 15 16 17 16 16 16 15 15 15 16 17 17 18 18 18 18 18 18 18 18 18 18 18 18 19 20 20 20 20 20 19 17 15 14 13 12 12 11 12 12 12
19 17 16 15 14 13 12 12 11 10 9 9 9 8 7 7 6 5 4 3 3 5 6 5 4 5 5 3 4 6 8 10 13 15 16 17 16 17 17 17 17 17 17 18 19 19 19 18 18 17 17 16 17 17 18 18 18 17 18 19 20 20 20 20 19 18 17 16 16 16 16 15 15 15
21 20 18 17 16 14 13 13 12 11 10 9 9 8 7 6 6 7 6 2 4 6 6 8 8 8 8 7 8 9 10 11 12 14 15 16 17 18 18 19 19 19 20 20 21 21 21 20 18 17 17 16 16 17 18 19 19 18 18 18 19 20 21 21 21 21 21 21 21 20 20 19 19 18
23 22 20 20 19 17 15 14 13 12 11 10 9 8 7 7 6 7 8 6 7 11 11 13 14 12 11 11 11 12 12 12 12 13 15 16 17 18 19 20 20 21 21 21 21 22 21 20 19 19 18 18 17 18 18 19 20 20 20 20 20 20 21 21 22 22 23 23 24 24 23 22 21 20
25 24 23 22 20 18 17 17 15 14 13 11 11 10 9 9 9 10 11 10 11 14 15 15 14 12 11 13 13 12 13 12 12 13 15 15 17 18 20 21 21 21 22 22 21 21 21 20 20 19 19 18 18 18 19 19 20 20 21 21 21 21 21 21 22 22 23 24 25 26 26 25 24 23
27 26 25 24 21 18 17 18 17 16 14 13 13 12 11 11 11 12 14 14 12 14 16 15 13 12 12 13 13 13 14 13 13 14 16 17 17 19 20 22 22 22 23 23 22 21 20 20 21 21 20 19 19 19 19 20 20 20 21 21 22 22 22 22 22 22 22 23 24 25 26 26 26 26
29 28 27 25 23 20 18 18 18 17 16 15 14 14 13 14 14 14 15 16 15 15 16 15 14 13 12 13 14 13 14 14 14 16 17 18 18 18 19 20 21 22 23 23 23 22 22 21 21 21 21 21 20 20 20 20 20 20 21 21 21 22 23 24 24 24 23 23 23 23 24 24 24 25
30 30 29 27 24 22 21 20 19 18 18 17 16 15 15 16 16 15 16 17 17 16 16 15 15 14 13 13 13 13 13 14 15 16 17 17 17 17 17 19 20 20 20 20 20 21 22 21 20 20 21 21 22 22 22 22 21 21 21 21 21 22 23 24 25 26 26 26 26 25 25 25 25 25
30 30 30 27 24 24 23 22 21 20 19 17 16 17 17 17 17 16 16 16 17 18 18 18 16 14 13 14 13 12 12 13 14 14 15 15 16 16 17 17 17 18 17 17 17 18 19 18 19 20 21 21 22 22 23 22 22 22 21 21 21 21 21 22 23 24 26 27 27 27 27 27 27 27
30 30 29 26 24 24 25 24 23 22 20 18 18 18 19 18 18 18 18 17 18 19 20 20 18 15 15 15 14 12 12 13 14 14 15 16 16 16 16 16 16 16 16 16 16 16 17 18 19 20 19 19 19 20 20 20 19 19 20 20 21 21 22 22 23 23 24 26 27 27 27 27 27 26
30 29 29 27 26 25 26 26 25 23 20 20 20 21 20 19 19 19 19 19 19 20 21 20 19 17 16 15 15 14 11 12 14 14 16 18 17 15 14 15 15 15 15 16 16 17 18 19 19 18 18 19 20 20 20 20 20 21 22 23 24 24 24 24 24 24 24 25 25 26 27 28 27 25
30 30 29 29 29 28 27 27 26 24 21 21 21 21 20 20 20 20 20 20 19 20 20 20 19 18 17 16 15 14 12 12 14 13 14 16 16 15 14 15 15 15 16 16 17 18 18 17 17 18 20 22 22 21 22 23 24 24 25 24 23 22 22 21 21 22 22 22 23 23 25 26 26 26
31 31 31 30 31 30 29 28 26 24 22 21 22 22 20 20 21 20 20 19 19 19 19 20 19 17 17 17 16 15 14 14 14 13 12 13 15 16 17 19 20 18 17 17 18 19 18 17 18 21 22 22 21 21 21 22 23 22 20 19 18 19 19 20 20 21 21 21 22 22 23 24 25 26
32 32 33 32 31 31 30 28 27 25 23 23 23 22 21 21 21 21 20 19 19 19 19 20 19 16 17 19 17 16 16 15 15 14 13 14 16 16 17 21 23 20 17 16 17 20 21 20 21 22 22 21 20 19 20 19 19 18 17 17 18 18 19 20 21 21 21 22 23 23 23 23 23 24
33 33 32 32 31 30 29 29 27 26 25 24 23 23 22 22 22 22 21 21 21 20 20 20 19 17 18 20 18 16 17 17 16 15 15 15 16 15 14 16 20 22 19 15 17 22 23 21 21 22 21 20 20 20 21 21 21 21 21 21 21 21 22 23 23 23 22 22 22 22 22 23 24 25
34 33 32 31 31 30 29 29 28 27 26 24 23 23 24 24 24 23 22 22 21 21 20 20 20 19 19 21 20 18 17 17 16 15 14 15 16 17 15 16 19 23 22 19 19 23 24 21 21 22 20 20 22 22 23 23 23 22 22 22 23 23 23 23 22 21 21 22 23 25 26 28 30 29
35 34 32 31 31 30 29 29 27 27 26 24 22 22 23 24 25 23 22 21 21 20 19 20 21 21 20 20 19 18 17 16 14 13 15 17 18 18 18 20 22 23 24 22 20 23 24 22 21 21 20 21 22 21 20 21 20 19 20 21 22 22 22 22 23 24 25 27 29 30 31 31 31 29
35 34 32 31 31 31 30 29 28 27 26 23 22 21 21 23 23 22 22 21 20 19 18 19 21 20 18 18 18 17 16 16 15 14 16 18 19 18 19 21 23 23 24 22 17 18 22 22 19 21 21 20 20 20 20 21 23 24 26 26 27 27 28 28 28 29 30 30 31 30 28 27 27 27
34 33 32 31 32 32 31 30 29 27 23 21 21 21 21 22 22 22 22 20 18 17 17 18 18 17 16 16 17 17 18 17 15 15 16 17 18 19 20 22 24 25 24 19 11 12 19 21 19 19 18 18 21 24 25 27 29 29 28 27 26 25 25 25 25 25 25 24 24 24 23 24 25 27
32 32 32 32 32 32 32 30 28 25 23 21 22 22 22 22 21 21 20 18 16 15 15 15 15 15 15 15 15 16 15 14 13 13 14 17 18 18 18 20 23 24 22 18 11 12 17 18 16 17 19 22 27 30 29 29 27 25 22 21 21 21 21 20 21 21 21 21 21 21 22 24 25 27
31 32 32 32 33 33 31 30 28 25 23 22 22 22 22 21 20 20 18 15 14 15 14 15 15 15 14 13 13 12 11 11 11 12 15 17 17 15 13 13 18 21 22 18 12 11 14 15 17 20 23 26 29 28 27 25 21 20 22 23 24 24 23 22 23 24 23 23 22 23 24 25 27 29
31 32 33 34 34 34 33 30 27 25 24 23 23 22 21 20 20 20 17 14 14 14 14 14 13 12 11 10 10 10 10 11 13 15 16 16 16 15 13 12 15 19 20 15 9 9 15 19 21 22 22 24 27 25 22 22 22 22 25 27 27 26 25 25 26 27 27 26 25 25 26 27 29 31
30 32 33 34 34 34 33 29 25 24 24 24 24 23 21 21 22 20 16 14 14 13 13 12 11 11 10 11 12 13 14 13 13 14 13 11 11 12 12 11 10 10 12 12 11 13 18 20 20 19 15 14 19 23 22 23 26 27 27 29 29 28 27 27 28 30 31 30 29 28 28 29 30 33
31 33 33 33 33 33 31 27 24 23 23 24 26 25 23 23 22 18 14 13 13 13 13 13 13 14 15 15 15 15 14 12 11 10 7 4 5 6 8 10 9 8 11 14 16 16 18 19 20 22 17 11 13 21 26 27 28 28 28 29 29 29 29 29 30 33 34 33 32 31 30 30 31 33
32 33 34 34 34 33 31 27 24 23 23 25 26 25 24 22 20 15 12 13 13 13 14 14 16 17 17 16 13 11 10 9 8 6 4 4 6 8 9 10 11 14 15 16 15 16 18 19 21 23 22 16 16 22 27 28 28 28 27 28 29 31 31 31 32 34 36 36 35 34 33 32 32 33
33 33 33 34 35 34 31 28 25 24 24 24 24 24 22 19 15 13 12 12 13 14 15 16 17 17 15 13 10 9 9 9 7 6 6 8 11 12 12 11 12 15 17 16 16 18 19 21 22 22 21 19 20 23 24 25 29 30 29 29 31 32 32 32 33 35 37 37 37 36 35 34 34 35
31 31 31 33 33 31 30 28 26 25 23 22 23 21 17 13 12 13 12 11 12 14 16 17 17 16 13 11 9 8 8 8 7 7 9 12 14 14 13 13 13 16 17 17 17 19 20 22 24 24 24 23 21 20 19 22 28 31 32 32 33 32 33 32 33 36 37 37 37 37 36 37 37 37
29 29 29 29 27 27 28 27 24 21 20 20 20 17 11 9 11 11 10 11 12 15 17 17 15 13 10 9 8 8 8 8 8 9 12 14 14 13 12 13 14 15 16 17 17 18 21 24 25 25 26 25 21 17 18 22 28 31 32 32 32 32 33 33 34 36 37 36 36 36 36 37 38 38
26 26 25 24 23 25 26 23 20 19 20 20 18 14 11 11 11 10 10 12 14 16 16 15 13 11 9 8 8 8 8 9 10 11 13 14 13 12 12 14 15 15 15 16 17 18 20 22 23 23 24 25 24 23 23 25 28 31 30 29 30 33 35 34 34 35 35 35 36 37 36 37 38 39
22 21 22 22 23 23 22 20 18 19 19 18 15 14 13 13 12 12 12 13 14 16 15 13 11 10 8 7 7 7 9 10 10 11 12 13 13 12 13 16 16 16 15 15 17 18 18 19 21 22 23 25 26 27 27 26 27 30 30 30 30 31 33 34 33 34 35 36 37 37 37 37 38 39
19 19 18 17 17 17 15 14 14 14 14 15 15 15 14 14 14 13 13 13 15 15 13 11 11 10 8 7 7 8 9 10 10 10 11 12 13 13 15 17 18 18 18 17 16 16 17 19 21 23 24 25 25 26 28 26 27 29 32 32 30 29 31 34 34 34 34 34 35 37 37 37 38 39
16 15 14 12 13 14 13 12 12 13 13 14 15 15 15 15 15 14 14 14 15 14 13 13 12 12 10 8 8 8 9 9 10 10 11 12 13 13 15 17 19 21 22 20 19 18 19 21 23 24 26 25 24 26 26 26 28 29 31 32 31 30 32 34 34 34 34 32 33 36 37 37 38 39
13 12 13 16 18 18 17 15 15 15 14 13 14 14 15 16 16 15 15 16 16 15 14 14 14 14 12 10 9 9 9 9 9 9 9 10 11 13 15 17 18 20 21 21 22 22 22 21 22 24 26 25 25 25 25 25 28 30 30 31 31 30 32 32 31 32 33 31 31 35 38 39 39 38
14 15 19 22 22 21 18 17 17 15 14 13 13 14 15 17 17 17 17 17 17 16 14 14 15 16 14 11 11 9 8 7 6 6 7 9 11 14 16 17 18 18 19 20 22 24 24 24 24 24 26 26 25 26 25 24 27 30 31 30 30 29 30 30 30 31 32 31 31 33 36 41 42 38
18 20 22 23 22 20 18 17 17 16 14 13 14 16 18 18 18 18 19 19 16 15 14 14 14 13 11 11 10 8 7 6 5 6 7 9 11 13 14 15 16 17 18 20 23 24 24 25 25 25 25 24 23 23 25 25 25 28 30 30 29 29 29 29 30 31 32 32 31 31 32 38 41 39
21 23 23 22 21 20 18 16 15 14 13 13 15 17 18 18 17 17 17 16 12 10 10 9 9 9 9 9 8 6 5 5 6 7 7 8 9 11 12 14 15 17 19 21 23 24 23 24 24 22 17 14 12 12 19 27 29 27 27 28 29 29 30 30 30 32 33 34 32 30 29 32 38 40
23 23 21 20 19 19 16 14 12 12 13 14 16 16 15 13 12 11 10 10 9 9 9 8 7 8 8 7 6 5 5 6 6 6 6 6 8 10 13 15 16 19 21 22 22 22 22 22 24 21 13 8 5 6 14 27 34 32 28 28 29 30 30 30 30 32 35 35 33 32 30 32 38 42
23 21 19 18 17 15 11 10 9 8 8 8 8 7 6 5 5 6 8 10 11 10 9 8 7 7 7 6 6 7 7 6 5 5 4 6 9 11 14 16 18 20 22 22 21 21 21 21 24 22 15 7 4 6 11 20 30 34 32 29 28 29 29 28 29 32 35 35 33 33 33 33 37 41
21 20 20 18 14 12 11 12 13 13 12 11 11 11 11 10 9 10 11 11 9 8 7 7 6 6 6 7 6 6 5 4 3 3 5 8 11 13 15 17 19 20 21 22 21 21 22 23 24 25 21 15 13 15 18 21 27 33 32 27 24 26 27 27 28 31 33 34 34 35 36 35 35 36
18 18 18 16 13 13 15 16 15 13 13 12 11 11 11 11 12 13 12 10 8 7 6 6 4 3 3 3 3 3 2 1 2 5 8 10 11 13 15 17 19 19 19 20 21 21 24 25 26 27 28 25 23 24 25 24 26 29 29 26 23 24 25 27 29 31 32 33 35 35 35 33 33 33
17 17 16 15 14 14 14 14 14 13 12 11 9 9 9 10 11 11 10 8 7 6 5 6 6 4 3 2 2 2 1 2 4 6 9 11 12 14 15 16 18 19 18 18 20 22 24 26 27 29 29 26 23 21 18 15 17 23 28 29 27 26 26 27 28 29 30 32 33 32 30 30 31 31
18 16 15 14 13 13 14 15 15 13 11 10 9 8 8 9 9 8 7 6 6 5 4 5 6 6 5 4 3 2 2 3 5 7 9 10 12 14 15 16 18 18 18 18 21 24 25 26 27 29 27 23 19 15 11 10 14 20 26 29 30 30 31 31 30 27 26 29 30 28 28 28 23 19
16 14 13 13 13 14 14 15 14 12 11 10 10 9 9 9 8 7 7 6 6 5 4 3 4 6 6 5 4 2 2 4 6 8 9 11 12 14 15 17 18 18 19 21 22 25 26 27 28 29 26 20 16 14 14 15 18 20 22 26 29 33 35 35 33 30 27 28 28 27 29 29 23 17
15 13 14 15 15 15 15 14 13 12 11 10 9 8 8 8 8 7 6 5 4 4 4 4 5 6 6 5 3 2 3 5 7 8 9 11 12 14 16 18 18 19 20 21 23 26 28 28 28 28 23 18 16 16 16 17 19 20 21 24 27 31 34 35 34 33 32 31 30 30 32 32 29 26
15 14 15 16 15 14 14 13 12 11 10 9 8 7 7 7 7 6 5 4 4 3 4 5 7 7 6 4 2 3 4 6 7 8 9 11 12 14 16 17 18 19 20 21 23 26 28 28 28 27 21 16 15 17 17 16 17 18 21 22 25 29 32 32 31 32 33 33 34 35 36 35 32 28
Wind_Direction
209 207 212 219 218 217 220 215 205 203 203 201 204 213 211 196 184 176 257 261 215 198 227 268 282 302 329 319 273 256 256 258 257 261 272 277 280 283 286 285 285 286 289 292 295 297 299 301 300 299 296 293 292 292 293 294 294 294 295 296 294 286 279 279 283 284 283 283 286 290 294 298 300 300
210 212 216 222 223 221 221 220 220 220 214 210 211 220 227 220 208 188 193 257 240 223 253 278 298 317 328 322 292 264 257 262 264 268 273 277 284 290 290 287 285 286 290 294 297 298 299 300 299 299 298 296 293 292 292 292 291 290 289 292 295 291 282 275 275 278 278 277 280 283 286 289 292 295
212 216 218 222 223 223 222 218 219 222 219 220 221 223 228 229 225 206 188 209 254 248 267 284 292 303 303 294 290 282 276 276 275 275 276 280 288 293 293 291 289 290 293 295 297 299 300 300 298 297 297 295 292 292 292 292 291 289 288 288 290 291 288 281 276 275 276 276 279 281 282 284 286 288
214 216 219 222 222 225 227 219 213 216 218 220 220 224 232 230 230 224 206 208 250 260 271 283 290 296 297 290 286 283 281 281 282 284 285 286 290 292 292 293 293 293 294 294 296 299 301 302 301 299 297 294 291 290 289 289 289 289 291 292 291 289 288 286 282 279 277 277 278 279 280 281 282 283
217 217 220 222 221 224 226 221 216 217 220 221 220 221 230 233 233 232 223 222 248 267 274 281 287 292 294 291 288 287 286 282 280 283 284 285 287 289 290 292 292 292 293 294 295 297 299 301 301 300 299 297 294 293 292 290 289 289 290 293 294 292 288 286 284 282 281 279 278 278 278 278 279 280
218 219 221 222 221 219 219 217 215 219 222 223 223 224 231 239 239 236 235 230 236 258 270 277 282 285 284 284 286 287 284 281 279 278 280 284 287 288 289 289 289 290 292 293 293 293 294 297 299 299 300 301 300 299 296 293 291 289 289 291 292 293 290 287 285 283 283 282 281 280 279 279 279 279
218 220 222 223 221 218 217 217 217 222 226 227 230 229 230 236 237 237 241 239 236 247 262 270 273 275 275 276 280 282 276 272 273 274 278 283 286 287 287 286 287 290 291 292 291 290 289 290 292 295 297 299 299 298 295 293 290 288 287 287 288 290 290 289 287 286 285 284 283 283 282 282 281 281
220 221 222 224 223 221 221 222 221 222 225 229 232 230 230 235 240 241 243 246 247 249 256 263 268 270 271 273 278 278 271 266 267 271 276 281 284 286 286 287 289 291 293 292 289 287 287 286 287 289 293 294 294 292 291 289 287 286 284 285 286 288 288 288 287 287 287 286 284 283 283 284 284 283
222 223 224 226 224 222 225 225 220 219 224 231 232 230 231 235 240 244 243 246 251 251 254 261 266 268 270 273 277 277 274 274 274 275 278 280 283 285 286 286 289 294 297 296 291 286 283 284 285 289 292 293 292 290 289 288 286 285 285 286 287 287 287 286 285 285 286 287 287 286 285 285 286 287
225 226 227 228 224 223 228 226 220 222 228 231 230 229 231 234 238 242 243 245 250 253 256 260 263 265 268 272 276 277 279 279 278 279 280 279 278 279 282 286 289 293 296 298 296 290 285 285 288 292 295 296 295 294 292 290 287 285 284 285 285 286 286 285 283 282 282 283 285 287 287 287 289 290
229 229 229 229 227 228 232 229 224 228 232 230 232 233 233 234 237 240 242 244 247 250 253 255 258 263 267 270 274 279 278 272 271 276 279 279 279 279 282 287 289 290 291 293 294 292 289 290 293 296 299 299 298 298 297 294 290 287 286 286 288 289 289 287 284 282 281 280 280 282 284 286 289 290
231 231 231 231 232 231 232 230 229 233 234 232 235 238 238 238 240 241 241 242 245 246 247 251 257 264 267 268 272 277 274 266 269 276 276 277 285 293 293 291 292 292 291 291 292 292 294 294 295 299 300 300 300 299 296 293 291 289 289 291 294 296 296 293 289 286 285 284 283 281 280 281 284 287
232 233 234 235 234 232 231 232 235 238 236 235 239 240 240 241 240 239 239 240 242 242 242 248 256 261 265 269 273 276 276 273 278 285 281 278 288 298 297 296 298 296 294 293 294 298 301 298 298 301 302 303 304 301 298 296 295 296 296 298 302 304 303 301 298 296 294 293 292 289 286 284 283 283
232 232 234 236 235 233 232 234 238 239 237 239 243 244 244 243 239 235 236 238 239 239 241 250 257 258 263 270 274 276 281 283 284 286 285 283 289 295 297 300 304 305 303 297 295 299 303 301 300 303 305 307 307 305 303 302 302 301 300 301 305 306 305 304 302 300 299 298 298 297 296 294 291 288
231 231 231 233 233 232 232 234 237 239 240 242 246 247 246 246 243 241 241 241 241 240 244 253 259 258 264 274 278 278 282 285 282 281 280 280 285 291 295 297 302 309 310 301 294 299 303 303 303 305 309 312 312 310 308 308 306 303 300 299 300 300 300 299 299 298 297 296 296 296 296 295 294 292
230 229 229 229 230 231 231 233 235 238 241 245 249 251 250 250 250 249 249 248 246 246 250 257 262 262 266 274 278 279 281 282 279 276 274 275 280 286 285 280 288 303 307 301 297 300 304 307 307 307 310 314 315 313 311 311 310 306 302 298 296 295 294 293 292 290 290 290 290 292 293 293 292 291
228 228 226 225 228 230 231 232 235 238 242 247 251 251 249 249 249 248 249 249 251 255 260 264 268 270 271 272 278 283 282 278 274 269 271 278 281 280 279 278 286 298 301 298 297 299 304 312 310 306 310 313 313 311 310 311 310 305 302 299 295 293 291 289 287 285 285 287 289 289 289 289 288 287
227 226 224 223 225 228 229 230 233 238 243 248 251 249 246 245 244 243 244 248 252 261 268 271 275 279 278 276 283 287 281 270 267 269 276 284 285 283 284 287 291 296 298 297 293 291 303 315 311 305 310 311 305 305 307 308 307 305 302 299 295 293 291 289 287 286 286 286 286 286 285 285 286 286
227 225 224 223 225 227 229 230 233 237 243 247 249 248 244 242 241 242 246 252 258 267 273 274 277 281 282 282 284 285 281 273 272 278 282 285 286 287 289 290 293 297 301 302 291 281 301 313 307 301 308 305 298 301 306 307 306 305 303 301 298 296 294 292 291 290 290 290 288 288 288 288 289 288
226 226 225 224 226 228 229 231 233 237 242 247 248 246 243 242 242 245 249 256 265 270 269 267 271 276 279 279 279 279 277 275 276 279 278 280 284 284 283 287 294 299 304 308 303 285 294 306 304 300 306 305 301 302 305 306 307 308 309 309 309 307 306 306 307 307 306 304 301 299 298 297 297 295
226 226 225 224 226 227 229 232 236 239 242 246 246 243 241 240 243 247 250 257 264 266 262 263 269 275 275 272 269 268 266 271 278 276 275 285 291 285 279 284 292 299 307 313 310 289 289 301 306 306 310 309 304 305 308 311 314 318 318 317 315 314 314 316 318 319 316 312 308 306 306 304 303 300
226 227 227 226 226 227 230 235 240 243 243 243 242 240 239 240 244 247 249 255 260 259 259 262 266 268 269 265 262 264 269 277 282 281 285 295 296 288 284 285 293 304 312 318 316 297 297 305 309 311 312 308 304 307 313 317 319 320 320 317 315 314 316 317 320 321 319 316 312 309 308 306 304 302
226 228 227 226 226 229 232 236 241 242 241 243 242 239 238 240 244 247 250 254 256 254 253 256 259 263 268 270 272 276 278 279 282 287 294 299 292 287 290 294 298 305 310 314 316 307 304 308 310 311 309 303 305 309 310 313 316 317 317 316 315 315 316 316 317 319 318 316 313 310 308 306 304 302
224 225 224 223 225 228 231 236 241 240 241 244 242 238 238 241 244 247 252 253 252 252 254 259 267 275 280 283 284 284 280 279 286 293 296 297 294 298 301 299 291 276 286 305 314 308 304 307 308 307 302 289 291 301 305 306 310 313 316 315 314 315 315 313 314 316 315 314 311 308 306 304 303 300
221 221 220 221 223 226 230 236 241 241 242 242 240 239 241 243 244 247 250 250 250 255 262 270 278 284 289 291 288 282 281 288 293 287 281 303 318 316 310 299 285 277 288 309 319 308 300 300 301 301 299 287 279 291 300 304 306 311 316 314 311 312 312 310 309 311 312 311 308 305 303 302 301 298
220 220 220 221 224 228 232 237 242 244 243 237 237 240 239 237 241 244 243 247 253 260 269 279 287 292 295 291 279 272 284 295 288 271 277 305 318 318 315 309 295 290 299 315 319 306 296 295 297 297 294 291 291 296 300 304 308 313 314 311 309 309 307 305 305 306 308 307 305 304 302 300 299 297
220 221 223 226 229 231 233 239 244 245 240 231 230 234 231 227 235 241 244 253 263 272 282 288 290 292 291 282 269 272 289 290 274 269 289 306 314 314 312 310 305 303 308 314 315 309 301 298 300 300 295 293 296 299 299 301 306 310 309 307 307 307 305 304 302 304 306 306 305 305 303 299 298 296
220 222 225 227 229 231 236 242 244 241 235 228 226 227 227 231 239 244 256 269 274 279 283 283 283 284 279 268 264 278 290 279 267 280 297 306 311 311 309 310 310 310 313 313 313 313 307 302 303 306 304 297 291 289 292 295 299 302 303 304 305 305 305 304 303 304 305 305 304 303 299 297 297 296
224 227 230 231 233 238 243 245 236 226 223 223 224 227 231 234 239 248 259 265 267 270 270 270 273 272 263 259 268 279 277 266 271 292 303 306 310 312 312 313 314 315 318 317 316 317 315 310 310 312 309 302 293 286 287 290 293 297 299 299 300 302 304 305 304 305 305 303 301 299 296 294 294 294
228 233 237 236 237 242 244 238 223 209 205 205 210 218 222 225 234 242 242 246 255 258 258 260 264 261 259 266 272 264 256 261 281 302 306 306 310 314 316 317 318 321 324 324 323 324 325 323 321 315 310 306 301 295 292 290 289 294 298 297 296 300 304 305 305 304 302 301 300 298 295 293 292 291
222 226 230 230 234 235 231 223 211 197 190 191 199 209 217 223 229 231 232 241 249 251 252 256 260 262 270 272 258 244 250 270 294 306 304 304 310 317 319 317 318 323 327 328 330 334 333 329 325 320 313 308 304 304 303 297 291 292 298 300 297 297 301 303 303 301 301 300 298 296 294 292 290 289
211 216 216 211 213 214 206 193 188 190 194 198 204 213 222 229 232 232 236 244 244 243 248 256 261 266 271 266 249 244 258 283 302 306 305 306 312 319 321 317 318 323 326 330 336 338 335 331 328 327 324 317 310 311 310 304 298 296 298 301 301 298 300 302 302 301 303 302 297 295 293 291 290 290
198 195 191 185 184 188 187 183 187 197 206 210 214 222 230 236 240 241 244 244 242 242 248 256 262 268 269 257 243 247 265 287 300 304 308 312 316 319 318 315 318 322 324 329 335 336 334 333 330 328 329 327 324 322 315 304 301 302 301 301 302 301 302 304 304 304 306 303 298 296 295 294 293 293
179 167 169 173 175 176 179 185 193 204 213 217 224 233 242 246 246 245 245 243 243 247 255 263 269 271 263 245 236 246 265 278 285 295 309 315 316 318 317 317 321 327 326 327 332 332 332 332 332 330 330 331 330 328 321 308 301 303 305 304 303 303 304 306 307 307 307 305 301 299 298 297 297 297
174 170 171 173 175 178 184 194 202 208 213 224 237 247 254 257 254 249 245 244 247 254 260 263 264 257 242 230 232 241 251 261 277 296 308 315 318 321 323 323 325 330 330 327 329 332 332 332 331 328 328 330 328 325 325 320 309 304 307 308 308 307 307 309 311 311 309 308 306 302 299 298 299 300
178 179 180 179 181 186 191 199 206 212 221 238 253 257 259 261 260 254 249 248 250 249 245 244 240 228 221 225 230 234 245 265 288 300 308 318 327 332 334 333 330 330 330 328 329 332 331 330 328 325 321 324 324 315 319 323 320 312 308 309 311 313 312 313 315 315 312 311 309 304 298 296 297 301
179 181 184 187 190 192 196 204 218 231 242 252 258 258 256 255 256 252 241 230 219 210 208 211 210 208 210 215 222 241 265 278 287 297 311 330 343 344 339 335 331 330 329 329 331 332 330 327 326 322 313 312 318 300 307 317 321 320 317 314 313 315 315 315 316 316 313 312 309 304 300 296 296 300
184 183 187 193 194 193 196 203 207 207 208 210 211 205 196 200 207 196 188 189 188 188 192 194 194 199 210 224 243 265 276 277 284 305 334 351 352 346 337 332 330 330 329 329 331 333 331 326 323 320 314 302 297 300 305 312 315 317 321 320 315 313 314 315 315 314 312 311 309 306 302 298 297 301
186 184 185 188 184 174 166 163 158 151 146 146 146 147 150 157 163 166 172 180 184 190 200 206 211 224 234 244 256 266 269 274 298 336 353 351 344 338 333 330 330 329 327 327 329 331 330 326 325 324 318 306 298 301 302 300 301 307 315 321 317 312 312 314 316 315 313 312 312 310 307 305 303 304
183 184 184 179 167 156 153 152 151 150 149 147 144 144 149 158 166 171 176 181 184 191 200 201 198 205 220 235 245 242 242 291 348 346 343 341 336 333 333 332 330 328 325 321 323 327 327 327 328 328 323 318 316 316 311 304 301 305 313 320 322 319 315 316 320 318 314 314 316 314 313 314 313 313
183 182 179 171 162 156 155 155 158 161 160 155 150 146 147 156 165 170 172 174 176 179 183 186 191 197 203 209 205 197 222 316 336 337 336 336 334 334 335 333 330 329 324 317 317 322 325 327 330 333 332 331 332 331 324 312 307 311 316 322 327 327 323 323 326 323 317 317 318 315 314 316 315 314
183 179 175 170 164 161 160 162 163 163 159 157 158 159 160 160 160 160 165 173 180 183 185 190 204 215 211 196 189 203 262 317 334 336 335 336 336 336 335 332 330 329 323 317 319 323 326 329 334 338 339 340 339 333 320 308 307 311 315 321 328 331 331 333 335 332 326 324 323 319 318 319 316 312
184 179 176 171 166 162 162 162 162 160 157 154 156 158 161 163 164 167 176 182 186 192 203 209 214 215 205 188 185 218 287 326 337 337 337 337 337 335 332 331 333 333 328 324 324 326 329 333 338 339 339 338 337 329 315 310 312 313 316 321 327 331 336 339 339 338 336 334 332 329 325 323 318 314
177 170 165 163 161 159 159 159 158 157 154 153 154 159 165 172 176 177 180 185 195 215 232 229 210 197 186 178 188 244 311 330 333 334 336 336 335 334 333 334 336 335 332 329 328 329 332 336 339 340 337 334 334 331 322 317 318 319 321 325 328 332 336 339 340 340 339 339 339 338 336 333 330 324
169 164 162 161 159 156 155 155 154 153 152 154 158 164 170 176 178 179 184 196 208 216 203 182 171 165 163 173 215 276 311 320 321 323 326 328 330 332 334 336 336 334 332 330 329 329 331 334 337 339 338 335 337 337 330 324 324 324 325 328 332 335 338 339 339 338 337 337 340 342 343 344 344 342